Regional Weather Roundup
Issued by NWS

Home | Current Version | Previous Version | Text Only | Print | Product List | Glossary On
Versions: 1 2 3 4 5 6 7 8 9 10 11 12 13 14 15 16 17 18 19 20 21 22 23 24 25 26 27 28 29 30 31 32 33 34 35 36 37 38 39 40 41 42 43 44 45 46 47 48 49 50
000
ASUS45 KPSR 021010
RWRAZ

ARIZONA HOURLY REGIONAL WEATHER ROUNDUP
NATIONAL WEATHER SERVICE PHOENIX AZ
300 AM MST THU JUL 02 2015

NOTE: FAIR INDICATES FEW OR NO CLOUDS BELOW 12,000 FEET WITH NO
SIGNIFICANT WEATHER AND/OR OBSTRUCTIONS TO VISIBILITY.

AZZ001>003-036-021100-
NORTHWEST ARIZONA

CITY           SKY/WX    TMP DP  RH WIND       PRES   REMARKS
BULLHEAD CITY  CLOUDY    90  59  35 S6        29.86S
KINGMAN        LGT RAIN  74  63  68 SE8       30.05S
$$

AZZ004>008-015-016-018-021100-
NORTH CENTRAL ARIZONA

CITY           SKY/WX    TMP DP  RH WIND       PRES   REMARKS
GRAND CANYON     N/A    N/A N/A N/A MISG      30.27F
WILLIAMS       CLOUDY    63  57  82 S7        30.34F
PRESCOTT       CLOUDY    72  60  66 SW6       30.16F
FLAGSTAFF      CLOUDY    59  57  93 CALM      30.31F
PAYSON         MOCLDY    72  55  56 CALM      30.18S
PAGE           CLOUDY    81  54  39 S13G23    30.05R
$$

AZZ009>014-017-021100-
NORTHEAST ARIZONA

CITY           SKY/WX    TMP DP  RH WIND       PRES   REMARKS
WINSLOW        CLOUDY    65  61  87 SW5       30.15F
SAINT JOHNS    MOCLDY    64  57  78 SE8       30.18F
WINDOW ROCK    CLOUDY    66  49  54 N12       30.24F
SHOW LOW       MOCLDY    57  50  77 S5        30.26F
$$

AZZ023-021100-
GREATER PHOENIX AREA

CITY           SKY/WX    TMP DP  RH WIND       PRES   REMARKS
PHOENIX        MOCLDY    90  58  33 W9        29.87F
BUCKEYE          N/A     84  57  39 SW6       29.90F
LUKE AFB       CLOUDY    88  59  37 SW13      29.87F
DEER VALLEY    MOCLDY    86  58  38 SW6       29.90S
SCOTTSDALE     MOCLDY    87  58  37 CALM      29.92S
$$

AZZ027-028-021100-
SOUTHWEST MARICOPA COUNTY AND PINAL COUNTY

CITY           SKY/WX    TMP DP  RH WIND       PRES   REMARKS
CASA GRANDE    PTCLDY    82  59  44 CALM      29.92S
GILA BEND      FAIR      83  61  47 SW8       29.88F
$$

AZZ503-504-507>509-021100-
SOUTHEAST ARIZONA

CITY           SKY/WX    TMP DP  RH WIND       PRES   REMARKS
TUCSON         CLEAR     75  65  70 S7        30.02F
DAVIS-MONTHAN  CLEAR     75  65  69 S7        30.01S
NOGALES        PTCLDY    65  61  87 CALM      30.10F
SIERRA VISTA   CLEAR     70  60  69 W10       30.15F
DOUGLAS        CLEAR     71  59  65 NW9       30.09F
SAFFORD        CLEAR     80  58  46 NW10      29.98S
$$

AZZ020-021-025-026-031-021100-
SOUTHWEST ARIZONA

CITY           SKY/WX    TMP DP  RH WIND       PRES   REMARKS
YUMA           CLEAR     81  66  60 CALM      29.85S
$$

CAZ031-033-041-043-047-048-061-021100-
SOUTHERN CALIFORNIA

CITY           SKY/WX    TMP DP  RH WIND       PRES   REMARKS
DOWNTOWN L.A.  MOCLDY    69  62  78 CALM      29.94S
L.A. AIRPORT   LGT RAIN  65  61  87 W7        29.95F
SAN DIEGO      MOCLDY    73  65  75 CALM      29.95F
BURBANK        MOCLDY    73  57  57 SE3       29.96S
ONTARIO        MOCLDY    71  60  68 SE3       29.96S
RIVERSIDE      PTCLDY    73  61  65 CALM      29.96F
PALM SPRINGS   PTCLDY    86  61  42 N5        29.87F
EL CENTRO NAS  CLEAR     81  66  60 S5        29.84S
IMPERIAL       CLEAR     82  67  60 CALM      29.82S
BLYTHE         MOCLDY    84  65  52 S8        29.86R
NEEDLES        MOCLDY    89  59  36 CALM      29.87S
$$

NVZ020-UTZ003-021100-
SOUTHERN NEVADA-UTAH

CITY           SKY/WX    TMP DP  RH WIND       PRES   REMARKS
LAS VEGAS      TSTM      83  65  54 W20       29.88S
SALT LAKE CITY CLOUDY    77  51  40 SE8       30.01F
$$

NMZ009-TXZ055-021100-
NEW MEXICO-WEST TEXAS

CITY           SKY/WX    TMP DP  RH WIND       PRES   REMARKS
ALBUQUERQUE    CLOUDY    76  52  43 N9        30.13R
EL PASO        PTCLDY    77  51  40 E7        29.98F
$$


........................KEY........................
SKY/WX - SKY CONDITION/WEATHER
TMP    - TEMPERATURE IN FAHRENHEIT
DP     - DEW POINT IN FAHRENHEIT
RH     - RELATIVE HUMIDITY IN PERCENT
WIND   - DIRECTION AND SPEED IN MILES PER HOUR (MPH)
VRB    - VARIABLE WIND DIRECTION
PRES   - MEAN SEA LEVEL PRESSURE IN INCHES OF MERCURY
         F - FALLING PRESSURE   R - RISING PRESSURE
         S - STEADY PRESSURE
VSB    - VISIBILITY IN MILES
HX     - HEAT INDEX IN FAHRENHEIT
WCI    - WIND CHILL INDEX IN FAHRENHEIT
TC     - TEMPERATURE IN CELSIUS WHICH IS ALSO KNOWN AS
         TEMPERATURE IN CENTIGRADE
AFB    - AIR FORCE BASE
         LUKE AFB IS LUKE AIR FORCE BASE
         DAVIS-MONTHAN IS DAVIS-MONTHAN AIR FORCE BASE
NAS    - NAVAL AIR STATION
         EL CENTRO NAS IS EL CENTRO NAVAL AIR STATION
N/A    - NOT AVAILABLE



USA.gov is the U.S. government's official web portal to all federal, state and local government web resources and services.